Hourly Data Report for January 27, 2004

SHERBROOKE A
QUEBEC

45°26'00.000" N
71°41'00.000" W
241.40 m
7028124
71610
YSC

Download Data

Hourly Data (January 2004)
Hourly Data Report for January 27, 2004
TIME
LST
Temp Definition
°C
Dew Point Definition
°C
Rel Hum Definition
%
Precip. Amount Definition
mm

Wind Dir Definition
10's deg

Wind Spd Definition
km/h
Visibility Definition
km
Stn Press Definition
kPa
Hmdx Definition


Wind Chill Definition


Weather Definition


00:00 -30.2 -35.8 58   10 6 15.0 99.87   -37  
01:00 -31.5 -37.3 57     0 15.0 99.89      
02:00 -31.5 -36.5 61   8 7 15.0 99.93   -39  
03:00 -31.4 -36.8 59   8 7 15.0 99.81   -39  
04:00 -31.7 -37.5 56   10 9 15.0 99.70   -41  
05:00 -31.8 -37.2 59   9 7 15.0 99.63   -39  
06:00 -31.7 -37.4 57   7 11 15.0 99.55   -42  
07:00 -32.1 -37.7 57   7 6 15.0 99.45   -39  
08:00 -30.6 -36.8 55   8 4 24.1 99.41   -35 Mostly Cloudy
09:00 -28.2 -34.9 53   8 4 24.1 99.33   -33 Mainly Clear
10:00 -24.2 -32.1 48   3 4 24.1 99.23   -28 Mainly Clear
11:00 -19.8 -29.4 42     0 24.1 99.14     Mainly Clear
12:00 -16.0 -27.2 38   3 9 24.1 98.98   -22 Mainly Clear
13:00 -13.4 -25.7 35   5 6 24.1 98.84   -17 Mainly Clear
14:00 -11.8 -24.0 36   8 4 24.1 98.67   -14 Mainly Clear
15:00 -11.1 -23.4 35   7 7 24.1 98.56   -15 Mainly Clear
16:00 -12.5 -23.7 39     0 24.1 98.43     Mainly Clear
17:00 -16.3 -25.6 45     0 24.1 98.34     Mainly Clear
18:00 -19.3 -27.3 49   24 4 15.0 98.24   -23  
19:00 -21.0 -27.6 55     0 15.0 98.13      
20:00 -19.7 -25.6 59   9 4 15.0 97.99   -23  
21:00 -22.1 -27.3 63   12 4 15.0 97.92   -26  
22:00 -22.3 -27.2 64     0 15.0 97.84      
23:00 -23.1 -28.2 63   9 7 15.0 97.72   -29  

Notes on Data Quality.

Legend

  • E = Estimated
  • M = Missing
  • NA = Not Available*
  • [empty] = Indicates an unobserved value
Date modified: